Station RDYD1 - 8551910 - Reedy Point, DE Image indicating link to RSS feed of recent meteorological observations for station RDYD1


Conditions at RDYD1 as of
(3:30 am EDT)
0730 GMT on 05/21/2024:
     

Click on the graph icon in the table below to see a time series plot of the last five days of that observation.

5-day plot - Atmospheric Pressure Atmospheric Pressure (PRES):29.98 in
5-day plot - Air Temperature Air Temperature (ATMP): 57.4 °F
5-day plot - Water Temperature Water Temperature (WTMP): 66.2 °F
NOS Water Level Observation Network Water Level
Previous observations
TIME
(EDT)
5-day plot - Wind Direction
WDIR
 
5-day plot - Wind Speed
WSPD
kts
5-day plot - Wind Gust
GST
kts
5-day plot - Wave Height
WVHT
ft
5-day plot - Dominant Wave Period
DPD
sec
5-day plot - Average Wave Period
APD
sec
5-day plot - Mean Wave Direction
MWD
 
5-day plot - Atmospheric Pressure
PRES
in
5-day plot - Pressure Tendency
PTDY
in
5-day plot - Air Temperature
ATMP
°F
5-day plot - Water Temperature
WTMP
°F
5-day plot - Dew Point
DEWP
°F
5-day plot - Salinity
SAL
psu
5-day plot - Visibility
VIS
nmi
5-day plot - Tide (above MLLW)
TIDE
ft
2024-05-21 03:24 am-------29.99- 57.6 66.2----
2024-05-21 03:18 am-------29.99- 57.6 66.2----
2024-05-21 03:12 am-------29.99- 57.6 66.2----
2024-05-21 03:06 am-------29.99- 57.7 66.2----
2024-05-21 03:00 am-------29.99-0.01 57.6 66.2----
2024-05-21 02:54 am-------29.99- 57.6 66.2----
2024-05-21 02:48 am-------29.99- 57.4 66.2----
2024-05-21 02:42 am-------29.99- 57.4 66.2----
2024-05-21 02:36 am-------29.99- 57.6 66.2----
2024-05-21 02:30 am-------29.99- 57.6 66.2----
2024-05-21 02:24 am-------30.00- 57.7 66.2----
2024-05-21 02:18 am-------30.00- 57.7 66.2----
2024-05-21 02:12 am-------30.00- 57.9 66.2----
2024-05-21 02:06 am-------29.99- 57.9 66.2----
2024-05-21 02:00 am-------30.00-0.01 57.9 66.2----
2024-05-21 01:54 am-------30.00- 57.9 66.2----
2024-05-21 01:48 am-------30.00- 57.9 66.2----
2024-05-21 01:42 am-------30.00- 57.9 66.2----
2024-05-21 01:36 am-------30.00- 58.1 66.2----
2024-05-21 01:30 am-------30.00- 58.1 66.2----
2024-05-21 01:24 am-------30.01- 58.1 66.2----
2024-05-21 01:18 am-------30.01- 58.1 66.2----
2024-05-21 01:12 am-------30.01- 58.1 66.4----
2024-05-21 01:06 am-------30.01- 58.3 66.4----
2024-05-21 01:00 am-------30.00-0.01 58.5 66.4----
2024-05-21 12:54 am-------30.01- 58.5 66.4----
2024-05-21 12:48 am-------30.01- 58.6 66.4----
2024-05-21 12:42 am-------30.01- 58.6 66.4----
2024-05-21 12:36 am-------30.01- 58.8 66.6----
2024-05-21 12:30 am-------30.00- 59.0 66.6----
2024-05-21 12:24 am-------30.00- 59.0 66.6----
2024-05-21 12:18 am-------30.00- 59.2 66.6----
2024-05-21 12:12 am-------30.00- 59.4 66.6----
2024-05-21 12:06 am-------30.00- 59.5 66.6----
2024-05-21 12:00 am-------30.00- 59.7 66.6----
2024-05-20 11:54 pm-------30.00- 59.9 66.6----
2024-05-20 11:48 pm-------30.00- 59.9 66.6----
2024-05-20 11:42 pm-------30.00- 59.9 66.6----
2024-05-20 11:36 pm-------30.00- 60.1 66.6----
2024-05-20 11:30 pm-------30.01- 60.1 66.6----
2024-05-20 11:24 pm-------30.01- 60.1 66.6----
2024-05-20 11:18 pm-------30.01- 60.1 66.6----
2024-05-20 11:12 pm-------30.01- 59.9 66.6----
2024-05-20 11:06 pm-------30.01- 59.9 66.6----
2024-05-20 11:00 pm-------30.01+0.02 60.1 66.6----
2024-05-20 10:54 pm-------30.01- 60.3 66.6----
2024-05-20 10:48 pm-------30.01- 60.4 66.6----
2024-05-20 10:42 pm-------30.01- 60.6 66.6----
2024-05-20 10:36 pm-------30.01- 61.0 66.7----
2024-05-20 10:30 pm-------30.01- 61.2 66.7----
2024-05-20 10:24 pm-------30.01- 61.2 66.7----
2024-05-20 10:18 pm-------30.01- 61.3 66.7----
2024-05-20 10:12 pm-------30.01- 61.3 66.7----
2024-05-20 10:06 pm-------30.01- 61.5 66.9----
2024-05-20 10:00 pm-------30.01+0.04 61.5 66.9----
2024-05-20 09:54 pm-------30.01- 61.5 66.9----
2024-05-20 09:48 pm-------30.01- 61.7 66.9----
2024-05-20 09:42 pm-------30.01- 61.9 66.9----
2024-05-20 09:36 pm-------30.01- 61.9 66.9----
2024-05-20 09:30 pm-------30.01- 62.1 66.9----
2024-05-20 09:24 pm-------30.01- 62.1 66.9----
2024-05-20 09:18 pm-------30.01- 62.1 66.9----
2024-05-20 09:12 pm-------30.01- 62.2 66.9----
2024-05-20 09:06 pm-------30.00- 62.2 66.9----
2024-05-20 09:00 pm--------- 62.4 66.9----
2024-05-20 08:54 pm--------- 62.6 66.9----
2024-05-20 08:48 pm-------30.00- 62.6 66.9----
2024-05-20 08:42 pm-------29.99- 62.8 66.9----
2024-05-20 08:36 pm-------29.99- 63.1 66.9----
2024-05-20 08:30 pm-------29.99- 63.5 66.9----
2024-05-20 08:24 pm-------29.99- 63.7 66.9----
2024-05-20 08:18 pm-------29.98- 63.9 66.9----
2024-05-20 08:12 pm-------29.98- 64.4 66.9----
2024-05-20 08:06 pm-------29.99- 64.8 66.9----
2024-05-20 08:00 pm-------29.99+0.00 65.3 66.9----
2024-05-20 07:54 pm-------29.99- 66.0 66.9----
2024-05-20 07:48 pm-------29.99- 66.6 66.9----
2024-05-20 07:42 pm-------29.99- 66.9 66.9----
2024-05-20 07:36 pm-------29.98- 67.6 66.9----
2024-05-20 07:30 pm-------29.98- 68.2 66.9----
2024-05-20 07:24 pm-------29.98- 68.9 66.9----
2024-05-20 07:18 pm-------29.98- 69.8 66.9----
2024-05-20 07:12 pm-------29.98- 70.9 66.9----
2024-05-20 07:06 pm-------29.98- 72.1 66.9----
2024-05-20 07:00 pm-------29.98-0.02- 66.9----
2024-05-20 06:54 pm-------29.98-- 66.9----
2024-05-20 06:48 pm-------29.97-- 66.9----
2024-05-20 06:42 pm-------29.97-- 66.9----
2024-05-20 06:36 pm-------29.97-- 67.1----
2024-05-20 06:30 pm-------29.97- 78.8 67.1----
2024-05-20 06:24 pm-------29.98- 78.4 67.1----
2024-05-20 06:18 pm-------29.98- 77.7 67.1----
2024-05-20 06:12 pm-------29.98- 77.2 67.1----
2024-05-20 06:06 pm-------29.98- 76.5 67.1----
2024-05-20 06:00 pm-------29.98-0.04 76.1 67.1----
2024-05-20 05:54 pm-------29.98- 76.6 67.1----
2024-05-20 05:48 pm-------29.98- 77.5 67.1----
2024-05-20 05:42 pm-------29.98- 78.6 67.1----
2024-05-20 05:36 pm-------29.98- 79.7 67.3----
2024-05-20 05:30 pm-------29.99- 79.7 67.3----
2024-05-20 05:24 pm-------29.99- 79.7 67.3----
2024-05-20 05:18 pm-------29.99- 79.3 67.3----
2024-05-20 05:12 pm-------29.99- 79.0 67.3----
2024-05-20 05:06 pm-------29.99- 78.4 67.3----
2024-05-20 05:00 pm-------29.98-0.04 77.9 67.3----
2024-05-20 04:54 pm-------29.99- 77.4 67.1----
2024-05-20 04:48 pm-------29.99- 77.4 66.7----
2024-05-20 04:42 pm-------29.99- 78.4 66.6----
2024-05-20 04:36 pm-------29.99- 79.0 66.4----
2024-05-20 04:30 pm-------30.00-------
2024-05-20 04:24 pm-------30.00-------
2024-05-20 04:18 pm-------30.00- 80.6 66.0----
2024-05-20 04:12 pm-------30.00- 80.2 66.0----
2024-05-20 04:06 pm-------30.00- 80.2 66.0----
2024-05-20 04:00 pm-------30.00-0.04 79.9 65.8----
2024-05-20 03:54 pm-------30.00- 79.7 65.8----
2024-05-20 03:48 pm-------30.00- 79.5 65.8----
2024-05-20 03:42 pm-------30.01- 79.0 65.8----
2024-05-20 03:36 pm-------30.01- 78.8 65.8----
2024-05-20 03:30 pm-------30.01- 78.3 65.8----
2024-05-20 03:24 pm-------30.01- 78.1 65.8----
2024-05-20 03:18 pm-------30.01- 77.5 65.8----
2024-05-20 03:12 pm-------30.01- 77.0 65.8----
2024-05-20 03:06 pm-------30.02- 76.8 65.8----
2024-05-20 03:00 pm-------30.02-0.04 77.0 65.8----
2024-05-20 02:54 pm-------30.02- 77.4 66.0----
2024-05-20 02:48 pm-------30.02- 76.8 66.0----
2024-05-20 02:42 pm-------30.02- 76.6 66.2----
2024-05-20 02:36 pm-------30.02- 76.8 66.0----
2024-05-20 02:30 pm-------30.02- 76.6 66.0----
2024-05-20 02:24 pm-------30.02- 76.1 66.0----
2024-05-20 02:18 pm-------30.02- 76.1 66.0----
2024-05-20 02:12 pm-------30.02- 75.6 66.0----
2024-05-20 02:06 pm-------30.02- 74.7 65.8----
2024-05-20 02:00 pm-------30.03-0.04 72.9 65.7----
2024-05-20 01:54 pm-------30.02- 70.9 65.7----
2024-05-20 01:48 pm-------30.02- 68.7 65.7----
2024-05-20 01:42 pm-------30.03- 67.6 65.7----
2024-05-20 01:36 pm-------30.02- 67.3 65.7----
2024-05-20 01:30 pm-------30.03- 67.5 65.7----
2024-05-20 01:24 pm-------30.03- 67.1 65.7----
2024-05-20 01:18 pm-------30.03- 68.0 65.7----
2024-05-20 01:12 pm-------30.04- 67.6 65.5----
2024-05-20 01:06 pm-------30.04- 68.2 65.5----
2024-05-20 01:00 pm-------30.04-0.02 68.5 65.5----
2024-05-20 12:54 pm-------30.04- 68.7 65.7----
2024-05-20 12:48 pm-------30.05- 69.8 65.7----
2024-05-20 12:42 pm-------30.05- 69.8 65.7----
2024-05-20 12:36 pm-------30.05- 68.7 65.7----
2024-05-20 12:30 pm-------30.05- 66.6 65.7----
2024-05-20 12:24 pm-------30.05- 64.9 65.5----
2024-05-20 12:18 pm-------30.05- 64.2 65.5----
2024-05-20 12:12 pm-------30.05- 63.7 65.5----
2024-05-20 12:06 pm-------30.06- 63.5 65.5----
2024-05-20 12:00 pm-------30.06-0.02 63.7 65.8----
2024-05-20 11:54 am-------30.06- 64.0 65.8----
2024-05-20 11:48 am-------30.06- 65.5 65.8----
2024-05-20 11:42 am-------30.06- 68.0 65.8----
2024-05-20 11:36 am-------30.06- 68.7 65.8----
2024-05-20 11:30 am-------30.06- 68.5 65.8----
2024-05-20 11:24 am-------30.06- 69.1 66.0----
2024-05-20 11:18 am-------30.06- 69.6 66.0----
2024-05-20 11:12 am-------30.06- 69.4 66.0----
2024-05-20 11:06 am-------30.06- 68.5 66.0----
2024-05-20 11:00 am-------30.06+0.00 68.0 66.0----
2024-05-20 10:54 am-------30.06- 67.5 66.0----
2024-05-20 10:48 am-------30.06- 66.4 66.0----
2024-05-20 10:42 am-------30.06- 66.0 66.0----
2024-05-20 10:36 am-------30.07- 65.8 66.0----
2024-05-20 10:30 am-------30.07- 65.3 66.0----
2024-05-20 10:24 am-------30.06- 64.9 66.0----
2024-05-20 10:18 am-------30.06- 64.8 66.0----
2024-05-20 10:12 am-------30.06- 64.2 66.0----
2024-05-20 10:06 am-------30.06- 63.3 66.0----
2024-05-20 10:00 am-------30.06+0.02 62.6 65.8----
2024-05-20 09:54 am-------30.06- 62.1 65.8----
2024-05-20 09:48 am-------30.07- 61.7 65.8----
2024-05-20 09:42 am-------30.07- 61.2 65.8----
2024-05-20 09:36 am-------30.06- 61.2 65.8----
2024-05-20 09:30 am-------30.07- 61.0 65.8----
2024-05-20 09:24 am-------30.07- 61.0 65.8----
2024-05-20 09:18 am-------30.07- 60.6 65.8----
2024-05-20 09:12 am-------30.07- 59.9 65.8----
2024-05-20 09:06 am-------30.08- 59.5 65.7----
2024-05-20 09:00 am-------30.08+0.06 59.2 65.7----
2024-05-20 08:54 am-------30.08- 58.6 65.7----
2024-05-20 08:48 am-------30.08- 58.3 65.7----
2024-05-20 08:42 am-------30.08- 58.5 65.7----
2024-05-20 08:36 am-------30.07- 58.3 65.7----
2024-05-20 08:30 am-------30.07- 58.1 65.7----
2024-05-20 08:24 am-------30.07- 57.9 65.7----
2024-05-20 08:18 am-------30.06- 57.9 65.5----
2024-05-20 08:12 am-------30.06- 57.7 65.5----
2024-05-20 08:06 am-------30.06- 57.4 65.5----
2024-05-20 08:00 am-------30.06+0.05 57.4 65.5----
2024-05-20 07:54 am-------30.06- 57.2 65.5----
2024-05-20 07:48 am-------30.06- 57.2 65.5----
2024-05-20 07:42 am-------30.06- 57.2 65.3----
2024-05-20 07:36 am-------30.06- 57.0 65.3----
2024-05-20 07:30 am-------30.06- 57.0 65.3----
2024-05-20 07:24 am-------30.06- 56.8 65.3----
2024-05-20 07:18 am-------30.06- 56.8 65.3----
2024-05-20 07:12 am-------30.05- 56.8 65.3----
2024-05-20 07:06 am-------30.05- 56.8 65.1----
2024-05-20 07:00 am-------30.04+0.03 56.7 65.1----
2024-05-20 06:54 am-------30.03- 56.7 65.1----
2024-05-20 06:48 am-------30.03- 56.7 65.1----
2024-05-20 06:42 am-------30.02- 56.7 65.1----
2024-05-20 06:36 am-------30.02- 56.5 65.1----
2024-05-20 06:30 am-------30.01- 56.5 65.1----
2024-05-20 06:24 am-------30.01- 56.5 65.1----
2024-05-20 06:18 am-------30.02- 56.3 65.1----
2024-05-20 06:12 am-------30.02- 56.1 64.9----
2024-05-20 06:06 am-------30.02- 56.1 65.1----
2024-05-20 06:00 am-------30.02+0.01 56.1 65.1----
2024-05-20 05:54 am-------30.02- 56.1 65.1----
2024-05-20 05:48 am-------30.02- 56.1 65.1----
2024-05-20 05:42 am-------30.01- 56.1 65.1----
2024-05-20 05:36 am-------30.01- 56.1 65.1----
2024-05-20 05:30 am-------30.01- 56.1 65.1----
2024-05-20 05:24 am-------30.01- 56.1 65.3----
2024-05-20 05:18 am-------30.01- 56.1 65.3----
2024-05-20 05:12 am-------30.01- 56.1 65.3----
2024-05-20 05:06 am-------30.01- 56.3 65.3----
2024-05-20 05:00 am-------30.01-0.01 56.3 65.3----
2024-05-20 04:54 am-------30.01- 56.3 65.3----
2024-05-20 04:48 am-------30.01- 56.3 65.3----
2024-05-20 04:42 am-------30.01- 56.5 65.3----
2024-05-20 04:36 am-------30.01- 56.5 65.5----
2024-05-20 04:30 am-------30.01- 56.3 65.5----
2024-05-20 04:24 am-------30.01- 56.3 65.5----
2024-05-20 04:18 am-------30.01- 56.3 65.5----
2024-05-20 04:12 am-------30.01- 56.3 65.5----
2024-05-20 04:06 am-------30.01- 56.3 65.5----
2024-05-20 04:00 am-------30.01-0.02 56.1 65.5----
2024-05-20 03:54 am-------30.01- 56.1 65.5----